EW6790 Weather Reports


time (UTC)temp
F
wind
direction
speed
knots
gust
knots
rain 1hr
in
rain 24hr
in
rain mn
in
humidity
%
barometer
mb
20260504231553 58 315 6.1 15.6 0.00 0.00 0.00 40 1002.5
20260504230055 59 312 7.8 19.1 0.00 0.00 0.00 39 1002.4
20260504224536 61 300 6.1 20.0 0.00 0.00 0.00 36 1002.4
20260504223034 61 337 5.2 14.8 0.00 0.00 0.00 36 1002.0
20260504221542 61 344 6.1 14.8 0.00 0.00 0.00 36 1001.7
20260504220029 61 288 6.1 19.1 0.00 0.00 0.00 34 1001.5
20260504214526 63 268 5.2 17.4 0.00 0.00 0.00 34 1001.4
20260504213027 63 351 4.3 19.1 0.00 0.00 0.00 33 1001.1
20260504211524 63 328 6.1 13.9 0.00 0.00 0.00 34 1001.0
20260504210005 62 337 9.6 20.0 0.00 0.00 0.00 33 1001.1
20260504204504 63 285 9.6 20.0 0.00 0.00 0.00 34 1001.1
20260504203049 63 318 7.8 17.4 0.00 0.00 0.00 31 1000.8
20260504201543 64 341 7.8 16.5 0.00 0.00 0.00 29 1001.0
20260504200021 64 307 7.0 15.6 0.00 0.00 0.00 29 1001.0
20260504194518 65 290 7.0 15.6 0.00 0.00 0.00 27 1000.9
20260504193117 65 295 7.0 14.8 0.00 0.00 0.00 28 1000.7
20260504191607 64 300 4.3 11.3 0.00 0.00 0.00 36 1000.6
20260504190116 65 308 6.1 28.7 0.00 0.00 0.00 29 1000.3
20260504184533 67 309 5.2 13.9 0.00 0.00 0.00 33 1000.2
20260504183032 66 293 6.1 20.9 0.00 0.00 0.00 36 1000.0
20260504181513 67 296 5.2 12.2 0.00 0.00 0.00 34 999.9
20260504180011 67 288 4.3 16.5 0.00 0.00 0.00 34 999.5
20260504174552 67 300 6.1 13.9 0.00 0.00 0.00 34 999.4
20260504173049 66 297 4.3 17.4 0.00 0.00 0.00 34 999.4
20260504171535 65 310 7.0 13.9 0.00 0.00 0.00 37 999.3
20260504081556 51 224 7.8 11.3 0.00 0.00 0.00 57 999.4
20260504044528 55 217 5.2 7.0 0.00 0.00 0.00 46 1002.6
20260504043023 55 217 5.2 7.8 0.00 0.00 0.00 47 1002.8
20260504041520 54 206 3.5 6.1 0.00 0.00 0.00 47 1003.0
20260504040018 55 204 4.3 7.0 0.00 0.00 0.00 46 1003.3
20260504034516 56 225 4.3 7.0 0.00 0.00 0.00 43 1003.5
20260504033013 54 212 4.3 5.2 0.00 0.00 0.00 47 1003.7
20260504031510 56 198 3.5 5.2 0.00 0.00 0.00 44 1004.0
20260504030008 57 217 0.9 3.5 0.00 0.00 0.00 43 1004.1
20260504024609 57 212 1.7 4.3 0.00 0.00 0.00 43 1004.1
20260504023053 59 202 0.0 2.6 0.00 0.00 0.00 39 1004.0
20260504021547 63 231 0.0 1.7 0.00 0.00 0.00 32 1003.9
20260504020046 64 260 0.0 0.9 0.00 0.00 0.00 32 1003.9
20260504014546 64 259 0.0 1.7 0.00 0.00 0.00 32 1003.8
20260504013044 64 306 0.0 1.7 0.00 0.00 0.00 32 1004.0
20260504011541 66 319 0.0 0.9 0.00 0.00 0.00 31 1004.0
20260504010039 67 319 0.0 2.6 0.00 0.00 0.00 30 1004.2
20260504004520 69 273 0.9 3.5 0.00 0.00 0.00 28 1004.3
20260504003025 71 309 1.7 4.3 0.00 0.00 0.00 26 1004.4
20260504001600 72 281 2.6 7.0 0.00 0.00 0.00 26 1004.4
20260504000138 72 343 3.5 7.8 0.00 0.00 0.00 26 1004.5
20260503234552 73 295 2.6 7.8 0.00 0.00 0.00 25 1004.6
20260503233042 73 326 3.5 9.6 0.00 0.00 0.00 25 1004.6